Location: Paris
(48.6709°N, 2.3750°E)
Time: 12:09:50
(UTC+02:00)

Gurwin Techsat 1B - Pass Details

Date: 26 June 2022
Orbit: 812 x 813 km, 98.8° (Epoch: 07 August)

Event Time Altitude Azimuth Distance (km) Brightness Sun altitude
Rises 04:13:59 0° 17° (NNE) 3,347 13.5 -11.4°
Reaches altitude 10° 04:16:23 10° 21° (NNE) 2,411 12.5 -11.2°
Maximum altitude 04:21:39 60° 102° (ESE) 929 9.1 -10.7°
Drops below altitude 10° 04:26:53 10° 182° (S) 2,393 10.6 -10.2°
Enters shadow 04:27:21 - 183° (S) 2,575 10.7 -10.2°
